Regional Weather Roundup
Issued by NWS State College, PA

Home | Current Version | Previous Version | Text Only | Print | Product List | Glossary Off
Versions: 1 2 3 4 5 6 7 8 9 10 11 12 13 14 15 16 17 18 19 20 21 22 23 24 25 26 27 28 29 30 31 32 33 34 35 36 37 38 39 40 41 42 43 44 45 46 47 48 49 50

119
ASUS41 KCTP 230803
RWRCTP

REGIONAL WEATHER ROUNDUP
NATIONAL WEATHER SERVICE STATE COLLEGE PA
400 AM EDT SUN JUL 23 2017

Note: "fair" indicates few or no clouds below 12,000 feet with no
significant weather and/or obstructions to visibility.

* = STATION THAT DOES NOT REPORT PRECIPITATION /E.G. RAIN...SNOW...ETC/
    THUNDER OR FOG.

PAZ002>004-007>009-013>016-020>023-029>032-230900-
WESTERN PENNSYLVANIA

CITY           SKY/WX    TMP DP  RH WIND       PRES   REMARKS
ERIE           CLOUDY    72  70  93 S7        29.73F
MEADVILLE      CLOUDY    72  72 100 SW5       29.77F FOG
FRANKLIN*      CLOUDY    72  68  88 W7        29.79S VSB 1/2
NEW CASTLE     FAIR      72  72 100 CALM      29.79S
BEAVER COUNTY  NOT AVBL
BUTLER*        CLOUDY    73  70  88 SW7       29.80R
PITTSBURGH INT CLOUDY    73  72  96 SW6       29.79F
PITTSBURGH     CLOUDY    72  69  90 SW7       29.80S FOG
INDIANA*       CLOUDY    72  72 100 SW7       29.83S FOG
LATROBE        CLOUDY    72  72 100 S7        29.82S FOG
WASHINGTON CO* CLOUDY    72  70  94 SW5       29.81F
$$

PAZ004>006-010>012-017>019-024>028-033>037-041-042-045-046-049>053-230900-
CENTRAL PENNSYLVANIA

CITY           SKY/WX    TMP DP  RH WIND       PRES   REMARKS
BRADFORD       FOG       66  66 100 SE3       29.81F VSB 1/2
DUBOIS         FOG       70  68  93 W3        29.80F VSB 1/2
CLEARFIELD     CLOUDY    68  68 100 CALM      29.80F
JOHNSTOWN      FOG       69  69 100 W8        29.85S VSB 1/2
ALTOONA        CLOUDY    71  70  96 SW5       29.81S
STATE COLLEGE  CLOUDY    68  67  99 CALM      29.79F
WILLIAMSPORT   CLOUDY    73  71  93 CALM      29.75S
SELINSGROVE    CLOUDY    71  70  96 CALM      29.77S FOG
FT INDIANTOWN  CLOUDY    71  71 100 CALM      29.76S
CAPITAL CITY   CLOUDY    75  71  87 W3        29.75S
HARRISBURG     CLOUDY    75  73  93 W3        29.75R
YORK           PTCLDY    72  71  97 CALM      29.77R
$$

PAZ038>040-043-044-047-048-054-055-060>062-067>071-230900-
EASTERN PENNSYLVANIA

CITY           SKY/WX    TMP DP  RH WIND       PRES   REMARKS
SCRANTON       CLOUDY    70  69  97 CALM      29.77S
MOUNT POCONO   CLOUDY    66  66 100 CALM      29.81S
ALLENTOWN      CLOUDY    73  70  90 NW3       29.76R FOG
QUAKERTOWN*    CLOUDY    72  72 100 CALM      29.77S
READING        CLOUDY    72  72 100 CALM      29.75S
LANCASTER      CLOUDY    75  73  93 W7        29.75S
COATESVILLE    PTSUNNY   73  72  94 CALM      29.77F
POTTSTOWN      RAIN      70  70 100 NW3       29.77S FOG
BLUE BELL      CLOUDY    72  72 100 CALM      29.76S
DOYLESTOWN     CLOUDY    71  71 100 NE3       29.75S
WILLOW GROVE   NOT AVBL
NORTH PHILA    CLOUDY    76  73  91 N3        29.75S
PHILADELPHIA   CLOUDY    79  70  74 W12       29.74S
$$




USA.gov is the U.S. government's official web portal to all federal, state and local government web resources and services.